<?xml version="1.0"?>
<gpx xmlns="http://www.topografix.com/GPX/1/1" xmlns:xsi="http://www.w3.org/2001/XMLSchema-instance" version="1.1" creator="GPX RubyGem 1.0.0 -- http://dougfales.github.io/gpx/" xsi:schemaLocation="http://www.topografix.com/GPX/1/1 http://www.topografix.com/GPX/1/1/gpx.xsd">
  <metadata>
    <name/>
    <time>2026-05-10T03:26:28+00:00</time>
    <bound minlat="90.0" minlon="180.0" maxlat="-90.0" maxlon="-180.0"/>
  </metadata>
  <trk>
    <name/>
    <trkseg>
      <trkpt lat="52.293975" lon="10.842564">
        <time>1970-01-01T00:00:00+00:00</time>
        <ele>103.0</ele>
      </trkpt>
      <trkpt lat="52.294151" lon="10.841482">
        <time>1970-01-01T00:00:00+00:00</time>
        <ele>109.0</ele>
      </trkpt>
      <trkpt lat="52.294106" lon="10.841498">
        <time>1970-01-01T00:00:00+00:00</time>
        <ele>109.0</ele>
      </trkpt>
      <trkpt lat="52.29406" lon="10.841513">
        <time>1970-01-01T00:00:00+00:00</time>
        <ele>109.0</ele>
      </trkpt>
      <trkpt lat="52.293011" lon="10.841994">
        <time>1970-01-01T00:00:00+00:00</time>
        <ele>107.0</ele>
      </trkpt>
      <trkpt lat="52.292911" lon="10.8421">
        <time>1970-01-01T00:00:00+00:00</time>
        <ele>107.0</ele>
      </trkpt>
      <trkpt lat="52.29285" lon="10.842206">
        <time>1970-01-01T00:00:00+00:00</time>
        <ele>108.0</ele>
      </trkpt>
      <trkpt lat="52.292732" lon="10.842474">
        <time>1970-01-01T00:00:00+00:00</time>
        <ele>110.0</ele>
      </trkpt>
      <trkpt lat="52.292461" lon="10.842918">
        <time>1970-01-01T00:00:00+00:00</time>
        <ele>113.0</ele>
      </trkpt>
      <trkpt lat="52.292331" lon="10.843087">
        <time>1970-01-01T00:00:00+00:00</time>
        <ele>113.0</ele>
      </trkpt>
      <trkpt lat="52.292222" lon="10.843198">
        <time>1970-01-01T00:00:00+00:00</time>
        <ele>113.0</ele>
      </trkpt>
      <trkpt lat="52.291997" lon="10.843388">
        <time>1970-01-01T00:00:00+00:00</time>
        <ele>113.0</ele>
      </trkpt>
      <trkpt lat="52.291812" lon="10.843476">
        <time>1970-01-01T00:00:00+00:00</time>
        <ele>113.0</ele>
      </trkpt>
      <trkpt lat="52.291627" lon="10.843524">
        <time>1970-01-01T00:00:00+00:00</time>
        <ele>114.0</ele>
      </trkpt>
      <trkpt lat="52.291149" lon="10.8436">
        <time>1970-01-01T00:00:00+00:00</time>
        <ele>118.0</ele>
      </trkpt>
      <trkpt lat="52.290337" lon="10.845093">
        <time>1970-01-01T00:00:00+00:00</time>
        <ele>121.0</ele>
      </trkpt>
      <trkpt lat="52.288751" lon="10.84784">
        <time>1970-01-01T00:00:00+00:00</time>
        <ele>138.0</ele>
      </trkpt>
      <trkpt lat="52.288677" lon="10.848039">
        <time>1970-01-01T00:00:00+00:00</time>
        <ele>139.0</ele>
      </trkpt>
      <trkpt lat="52.288641" lon="10.848184">
        <time>1970-01-01T00:00:00+00:00</time>
        <ele>140.0</ele>
      </trkpt>
      <trkpt lat="52.288631" lon="10.848412">
        <time>1970-01-01T00:00:00+00:00</time>
        <ele>141.0</ele>
      </trkpt>
      <trkpt lat="52.288628" lon="10.848546">
        <time>1970-01-01T00:00:00+00:00</time>
        <ele>142.0</ele>
      </trkpt>
      <trkpt lat="52.288615" lon="10.848592">
        <time>1970-01-01T00:00:00+00:00</time>
        <ele>142.0</ele>
      </trkpt>
      <trkpt lat="52.288615" lon="10.848592">
        <time>1970-01-01T00:00:00+00:00</time>
        <ele>142.0</ele>
      </trkpt>
      <trkpt lat="52.288628" lon="10.848546">
        <time>1970-01-01T00:00:00+00:00</time>
        <ele>142.0</ele>
      </trkpt>
      <trkpt lat="52.288631" lon="10.848412">
        <time>1970-01-01T00:00:00+00:00</time>
        <ele>141.0</ele>
      </trkpt>
      <trkpt lat="52.288641" lon="10.848184">
        <time>1970-01-01T00:00:00+00:00</time>
        <ele>140.0</ele>
      </trkpt>
      <trkpt lat="52.288677" lon="10.848039">
        <time>1970-01-01T00:00:00+00:00</time>
        <ele>139.0</ele>
      </trkpt>
      <trkpt lat="52.288751" lon="10.84784">
        <time>1970-01-01T00:00:00+00:00</time>
        <ele>138.0</ele>
      </trkpt>
      <trkpt lat="52.290337" lon="10.845093">
        <time>1970-01-01T00:00:00+00:00</time>
        <ele>121.0</ele>
      </trkpt>
      <trkpt lat="52.291149" lon="10.8436">
        <time>1970-01-01T00:00:00+00:00</time>
        <ele>118.0</ele>
      </trkpt>
      <trkpt lat="52.291627" lon="10.843524">
        <time>1970-01-01T00:00:00+00:00</time>
        <ele>114.0</ele>
      </trkpt>
      <trkpt lat="52.291812" lon="10.843476">
        <time>1970-01-01T00:00:00+00:00</time>
        <ele>113.0</ele>
      </trkpt>
      <trkpt lat="52.291997" lon="10.843388">
        <time>1970-01-01T00:00:00+00:00</time>
        <ele>113.0</ele>
      </trkpt>
      <trkpt lat="52.292222" lon="10.843198">
        <time>1970-01-01T00:00:00+00:00</time>
        <ele>113.0</ele>
      </trkpt>
      <trkpt lat="52.292331" lon="10.843087">
        <time>1970-01-01T00:00:00+00:00</time>
        <ele>113.0</ele>
      </trkpt>
      <trkpt lat="52.292461" lon="10.842918">
        <time>1970-01-01T00:00:00+00:00</time>
        <ele>113.0</ele>
      </trkpt>
      <trkpt lat="52.292732" lon="10.842474">
        <time>1970-01-01T00:00:00+00:00</time>
        <ele>110.0</ele>
      </trkpt>
      <trkpt lat="52.29285" lon="10.842206">
        <time>1970-01-01T00:00:00+00:00</time>
        <ele>108.0</ele>
      </trkpt>
      <trkpt lat="52.292911" lon="10.8421">
        <time>1970-01-01T00:00:00+00:00</time>
        <ele>107.0</ele>
      </trkpt>
      <trkpt lat="52.293011" lon="10.841994">
        <time>1970-01-01T00:00:00+00:00</time>
        <ele>107.0</ele>
      </trkpt>
      <trkpt lat="52.29406" lon="10.841513">
        <time>1970-01-01T00:00:00+00:00</time>
        <ele>109.0</ele>
      </trkpt>
      <trkpt lat="52.294106" lon="10.841498">
        <time>1970-01-01T00:00:00+00:00</time>
        <ele>109.0</ele>
      </trkpt>
      <trkpt lat="52.294151" lon="10.841482">
        <time>1970-01-01T00:00:00+00:00</time>
        <ele>109.0</ele>
      </trkpt>
      <trkpt lat="52.293975" lon="10.842564">
        <time>1970-01-01T00:00:00+00:00</time>
        <ele>103.0</ele>
      </trkpt>
    </trkseg>
  </trk>
</gpx>
